CW3847 La Orotava ES current weather conditions

sailwx.info

Wind from 175

Air temperature 17.2° C
Dewpoint 12.8° C

Last reported at 2014-Dec-19 17:47 UTC.
Time now 2014-Dec-19 18:14 UTC

Location: N 28°23' W 016°31'.
View on Google Maps.

See reports from other nearby stations

  
Tides and Currents Weather Stations Pressure Air Temp Water Temp Dewpoint Dewpoint Depression Visibility Wind Speed Wind Dir Waves Ship Positions
date/time (UTC)wind fromknots sea level pressurealtimeterstation pressurevisibilityair tempwater tempwave heightnotes
2014-Dec-19 17:47 175 17.2
2014-Dec-19 17:37 307 17.8
2014-Dec-19 17:27 307 17.8
2014-Dec-19 16:47 302 0 gusting 2 18.3
2014-Dec-19 16:37 337 1 gusting 1 18.3
2014-Dec-19 16:17 316 2 gusting 2 18.3
2014-Dec-19 16:07 310 1 gusting 2 18.9
2014-Dec-19 15:57 288 1 gusting 2 18.9
2014-Dec-19 15:17 320 2 gusting 3 18.9
2014-Dec-19 15:07 321 3 gusting 3 18.9
2014-Dec-19 14:57 349 2 gusting 2 19.4
2014-Dec-19 14:27 302 1 gusting 2 19.4
2014-Dec-19 14:17 323 2 gusting 4 18.9
2014-Dec-19 14:07 317 2 gusting 4 18.9
2014-Dec-19 13:57 315 0 gusting 3 19.4
2014-Dec-19 13:37 292 2 gusting 3 19.4
2014-Dec-19 13:27 355 2 gusting 3 19.4
2014-Dec-19 12:57 274 2 gusting 2 18.9
2014-Dec-19 12:37 292 2 gusting 2 18.9
2014-Dec-19 12:27 331 2 gusting 2 18.9
2014-Dec-19 12:17 322 1 gusting 2 18.3
2014-Dec-19 12:07 304 1 gusting 2 18.3
2014-Dec-19 11:57 306 1 gusting 1 18.3
2014-Dec-19 11:47 304 0 gusting 2 18.3
2014-Dec-19 11:37 319 1 gusting 2 18.3
2014-Dec-19 11:17 314 1 gusting 1 18.3
2014-Dec-19 10:57 315 17.8
2014-Dec-19 10:47 309 1 gusting 2 17.8
2014-Dec-19 10:37 276 0 gusting 2 17.8
2014-Dec-19 10:27 228 0 gusting 1 18.3
2014-Dec-19 10:17 228 0 gusting 0 17.8
2014-Dec-19 10:07 175 0 gusting 0 17.8
2014-Dec-19 09:17 159 4 gusting 4 13.9
2014-Dec-19 08:57 176 2 gusting 4 13.9
2014-Dec-19 08:07 164 2 gusting 3 13.3
2014-Dec-19 07:57 171 2 gusting 3 13.3
2014-Dec-19 07:47 172 2 gusting 3 13.3
2014-Dec-19 07:37 165 2 gusting 4 13.3
2014-Dec-19 07:17 165 2 gusting 3 13.3
2014-Dec-19 06:57 160 3 gusting 3 13.3
2014-Dec-19 06:47 168 2 gusting 3 13.3
2014-Dec-19 06:37 177 1 gusting 3 13.3
2014-Dec-19 06:27 192 1 gusting 5 13.3
2014-Dec-19 06:17 175 2 gusting 2 13.3
2014-Dec-19 05:57 167 2 gusting 4 13.9
2014-Dec-19 05:47 156 4 gusting 6 13.9
2014-Dec-19 05:37 165 2 gusting 5 13.9
2014-Dec-19 05:27 167 3 gusting 5 13.9
2014-Dec-19 05:17 155 4 gusting 5 13.9
2014-Dec-19 05:07 180 6 gusting 6 13.9
2014-Dec-19 04:57 181 2 gusting 4 13.9
2014-Dec-19 04:37 141 3 gusting 6 14.4
2014-Dec-19 04:17 197 2 gusting 3 13.9
2014-Dec-19 03:57 155 1 gusting 3 14.4
2014-Dec-19 03:47 166 2 gusting 2 14.4
2014-Dec-19 03:37 151 2 gusting 2 14.4
2014-Dec-19 03:27 154 1 gusting 3 15.0
2014-Dec-19 03:17 167 2 gusting 3 15.0
2014-Dec-19 03:07 165 2 gusting 3 15.0
2014-Dec-19 02:37 141 1 gusting 3 15.0
2014-Dec-19 02:17 170 2 gusting 3 15.0
2014-Dec-19 01:57 171 1 gusting 4 15.0
2014-Dec-19 01:47 178 2 gusting 3 15.0
2014-Dec-19 01:27 155 2 gusting 4 15.0
2014-Dec-19 01:17 184 1 gusting 3 15.0
2014-Dec-19 01:07 176 2 gusting 3 15.0
2014-Dec-19 00:57 178 2 gusting 3 15.6
2014-Dec-19 00:47 182 0 gusting 2 15.6
2014-Dec-19 00:37 158 2 gusting 4 15.6
2014-Dec-19 00:17 171 1 gusting 2 15.6
2014-Dec-19 00:07 146 0 gusting 2 15.6
2014-Dec-18 23:57 150 1 gusting 2 15.6
2014-Dec-18 23:37 144 0 gusting 1 15.6
2014-Dec-18 23:27 169 1 gusting 4 15.6
2014-Dec-18 22:57 159 2 gusting 2 15.6
2014-Dec-18 22:47 180 1 gusting 1 15.6
2014-Dec-18 22:27 176 0 gusting 3 16.1
2014-Dec-18 22:17 159 2 gusting 3 15.6
2014-Dec-18 22:07 193 0 gusting 1 15.6
2014-Dec-18 21:57 193 15.6
2014-Dec-18 21:27 171 0 gusting 1 15.6
2014-Dec-18 20:57 184 0 gusting 2 15.6
2014-Dec-18 20:37 173 0 gusting 1 16.1
2014-Dec-18 20:27 169 1 gusting 1 16.1
2014-Dec-18 19:47 110 0 gusting 1 16.1
2014-Dec-18 19:37 065 0 gusting 1 16.1
2014-Dec-18 19:27 031 1 gusting 2 16.1
2014-Dec-18 19:07 159 1 gusting 1 16.1
2014-Dec-18 18:47 205 16.1
2014-Dec-18 18:07 236 4 gusting 7 16.7
2014-Dec-18 17:57 233 2 gusting 6 16.7
2014-Dec-18 17:47 218 1 gusting 5 17.2
2014-Dec-18 17:37 251 2 gusting 3 17.2
2014-Dec-18 17:17 225 2 gusting 2 17.2
2014-Dec-18 17:07 317 0 gusting 0 17.2
2014-Dec-18 16:57 328 17.2
2014-Dec-18 16:47 360 0 gusting 2 17.2
2014-Dec-18 16:37 348 3 gusting 4 17.2
2014-Dec-18 16:27 324 2 gusting 3 17.2
2014-Dec-18 16:17 313 1 gusting 2 17.2
2014-Dec-18 15:47 295 1 gusting 2 17.8
2014-Dec-18 15:27 289 0 gusting 1 17.8
2014-Dec-18 15:17 246 2 gusting 2 17.8
2014-Dec-18 15:07 300 2 gusting 3 17.8
2014-Dec-18 14:57 259 17.8
2014-Dec-18 14:47 257 1 gusting 1 17.8
2014-Dec-18 13:37 250 1 gusting 2 17.2
2014-Dec-18 13:27 319 1 gusting 2 17.2
2014-Dec-18 13:17 316 2 gusting 2 17.8
2014-Dec-18 13:07 304 17.2
2014-Dec-18 12:57 307 1 gusting 3 17.2
2014-Dec-18 12:47 287 0 gusting 2 17.2
2014-Dec-18 12:37 261 17.8
2014-Dec-18 12:27 235 3 gusting 4 17.8
2014-Dec-18 12:17 270 2 gusting 4 17.2
2014-Dec-18 12:07 298 17.2
2014-Dec-18 11:57 304 17.2
2014-Dec-18 11:37 313 1 gusting 2 17.2
2014-Dec-18 10:47 263 0 gusting 1 17.2
2014-Dec-18 10:07 337 1 gusting 2 16.1
2014-Dec-18 09:47 194 16.1
2014-Dec-18 09:37 182 0 gusting 1 16.1
2014-Dec-18 09:27 182 0 gusting 0 15.6
2014-Dec-18 09:07 173 0 gusting 1 15.0
2014-Dec-18 08:57 165 0 gusting 2 15.0
2014-Dec-18 08:17 159 1 gusting 1 14.4
2014-Dec-18 08:07 063 14.4
2014-Dec-18 07:57 167 0 gusting 2 14.4
2014-Dec-18 07:47 195 3 gusting 5 14.4
2014-Dec-18 07:27 166 3 gusting 3 14.4
2014-Dec-18 07:17 168 1 gusting 3 14.4
2014-Dec-18 06:47 174 2 gusting 2 14.4
2014-Dec-18 05:47 161 1 gusting 2 13.9
2014-Dec-18 05:07 140 14.4
2014-Dec-18 04:57 157 1 gusting 1 14.4
2014-Dec-18 04:37 162 3 gusting 5 13.9
2014-Dec-18 04:27 169 1 gusting 3 13.9
2014-Dec-18 04:17 175 1 gusting 2 13.9
2014-Dec-18 04:07 198 1 gusting 2 14.4
2014-Dec-18 03:47 106 2 gusting 3 14.4
2014-Dec-18 03:37 171 4 gusting 6 13.9
2014-Dec-18 03:27 160 2 gusting 6 13.9
2014-Dec-18 03:17 158 1 gusting 3 14.4
2014-Dec-18 03:07 178 1 gusting 3 14.4
2014-Dec-18 02:57 185 1 gusting 2 14.4
2014-Dec-18 02:47 176 14.4
2014-Dec-18 02:27 052 15.0
2014-Dec-18 02:07 005 2 gusting 6 14.4
2014-Dec-18 01:57 165 1 gusting 4 14.4
2014-Dec-18 01:47 156 1 gusting 4 14.4
2014-Dec-18 01:37 174 0 gusting 1 14.4
2014-Dec-18 01:27 175 1 gusting 2 14.4
2014-Dec-18 01:17 167 2 gusting 3 15.0
2014-Dec-18 01:07 128 15.0
2014-Dec-18 00:57 128 0 gusting 0 15.0
2014-Dec-18 00:47 139 0 gusting 1 14.4
2014-Dec-18 00:37 171 0 gusting 2 14.4
2014-Dec-18 00:07 047 1 gusting 1 15.0
2014-Dec-17 23:57 047 1 gusting 2 15.0
2014-Dec-17 23:37 187 0 gusting 1 15.0
2014-Dec-17 23:27 189 0 gusting 1 15.0
2014-Dec-17 22:47 161 2 gusting 2 14.4
2014-Dec-17 22:37 144 2 gusting 2 15.0
2014-Dec-17 22:27 090 1 gusting 1 15.0
2014-Dec-17 22:17 075 2 gusting 2 15.0
2014-Dec-17 21:57 162 3 gusting 4 15.0
2014-Dec-17 21:47 163 6 gusting 6 15.0
2014-Dec-17 21:37 157 3 gusting 3 15.0
2014-Dec-17 21:17 211 15.0
2014-Dec-17 21:07 192 0 gusting 2 15.0
2014-Dec-17 20:47 195 1 gusting 2 15.0
2014-Dec-17 20:27 139 0 gusting 2 15.0
2014-Dec-17 20:07 202 0 gusting 1 15.0
2014-Dec-17 19:57 175 1 gusting 3 15.0
2014-Dec-17 19:47 115 1 gusting 2 15.0
2014-Dec-17 19:37 138 2 gusting 2 15.0
2014-Dec-17 19:07 191 0 gusting 1 15.0
2014-Dec-17 18:57 207 1 gusting 1 15.6
2014-Dec-17 18:47 202 0 gusting 0 15.6
2014-Dec-17 18:37 202 15.6
2014-Dec-17 18:17 223 2 gusting 3 15.6